TimeCDT,TemperatureF,Dew PointF,Humidity,Sea Level PressureIn,VisibilityMPH,Wind Direction,Wind SpeedMPH,Gust SpeedMPH,PrecipitationIn,Events,Conditions,WindDirDegrees,DateUTC
12:53 AM,63.0,57.0,81,30.06,10.0,South,10.4,-,N/A,,Overcast,170,2013-09-18 05:53:00
1:53 AM,62.1,57.0,84,30.06,10.0,South,8.1,-,N/A,,Overcast,170,2013-09-18 06:53:00
2:37 AM,62.6,57.2,82,30.05,10.0,South,10.4,-,N/A,,Overcast,170,2013-09-18 07:37:00
2:53 AM,62.1,57.9,86,30.04,10.0,South,10.4,-,N/A,,Overcast,190,2013-09-18 07:53:00
3:53 AM,63.0,57.9,84,30.02,10.0,South,10.4,-,N/A,,Overcast,190,2013-09-18 08:53:00
4:49 AM,62.6,57.2,82,30.01,10.0,South,9.2,-,N/A,,Overcast,170,2013-09-18 09:49:00
4:53 AM,62.1,57.9,86,30.01,10.0,South,8.1,-,N/A,,Overcast,170,2013-09-18 09:53:00
5:50 AM,60.8,57.2,88,30.00,10.0,South,8.1,-,N/A,,Scattered Clouds,190,2013-09-18 10:50:00
5:53 AM,60.1,57.0,90,30.00,10.0,South,8.1,-,N/A,,Scattered Clouds,190,2013-09-18 10:53:00
6:53 AM,60.1,55.9,86,30.00,9.0,South,9.2,-,N/A,,Mostly Cloudy,170,2013-09-18 11:53:00
7:53 AM,62.1,57.0,84,29.99,10.0,South,11.5,-,N/A,,Mostly Cloudy,170,2013-09-18 12:53:00
8:53 AM,64.9,60.1,84,29.98,10.0,South,10.4,-,N/A,,Scattered Clouds,180,2013-09-18 13:53:00
9:30 AM,64.4,60.8,88,30.00,10.0,SSW,18.4,21.9,N/A,Thunderstorm,Mostly Cloudy,200,2013-09-18 14:30:00
9:45 AM,64.4,60.8,88,30.01,1.5,SSW,18.4,-,0.00,Rain-Thunderstorm,Thunderstorms and Rain,210,2013-09-18 14:45:00
9:53 AM,62.1,62.1,100,30.00,0.5,SSW,11.5,23.0,0.38,Fog-Rain-Thunderstorm,Heavy Thunderstorms and Rain,200,2013-09-18 14:53:00
10:07 AM,62.6,62.6,100,30.00,1.2,South,16.1,-,0.23,Rain-Thunderstorm,Light Thunderstorms and Rain,190,2013-09-18 15:07:00
10:21 AM,62.6,62.6,100,30.01,2.5,SSW,16.1,-,0.28,Rain-Thunderstorm,Light Thunderstorms and Rain,200,2013-09-18 15:21:00
10:37 AM,62.6,62.6,100,29.99,1.8,South,15.0,28.8,0.30,Rain-Thunderstorm,Thunderstorms and Rain,180,2013-09-18 15:37:00
10:46 AM,64.4,62.6,94,29.99,2.5,South,15.0,24.2,0.32,Rain-Thunderstorm,Light Rain,190,2013-09-18 15:46:00
10:53 AM,63.0,63.0,100,29.99,3.0,SSW,15.0,24.2,0.32,Rain-Thunderstorm,Light Rain,200,2013-09-18 15:53:00
11:12 AM,64.4,62.6,94,29.98,1.8,SSE,13.8,21.9,0.03,Rain-Thunderstorm,Rain,150,2013-09-18 16:12:00
11:27 AM,62.6,62.6,100,29.98,4.0,South,12.7,-,0.04,Rain-Thunderstorm,Light Rain,170,2013-09-18 16:27:00
11:53 AM,64.0,64.0,100,29.98,6.0,South,13.8,-,0.04,Thunderstorm,Mostly Cloudy,190,2013-09-18 16:53:00
12:11 PM,64.4,64.4,100,29.97,5.0,SSE,16.1,-,0.01,,Mostly Cloudy,160,2013-09-18 17:11:00
12:53 PM,64.9,64.9,100,29.95,10.0,South,12.7,-,0.03,Rain,Light Rain,170,2013-09-18 17:53:00
1:53 PM,69.1,64.9,87,29.92,10.0,South,16.1,24.2,N/A,,Clear,180,2013-09-18 18:53:00
2:53 PM,75.0,66.9,76,29.90,10.0,South,13.8,24.2,N/A,,Clear,180,2013-09-18 19:53:00
3:53 PM,77.0,69.1,76,29.87,10.0,South,17.3,25.3,N/A,,Clear,170,2013-09-18 20:53:00
4:53 PM,78.1,69.1,74,29.86,10.0,South,16.1,-,N/A,,Clear,170,2013-09-18 21:53:00
5:53 PM,77.0,69.1,76,29.85,10.0,South,12.7,-,N/A,,Clear,170,2013-09-18 22:53:00
6:53 PM,75.0,69.1,82,29.84,9.0,SSE,10.4,-,N/A,,Clear,160,2013-09-18 23:53:00
7:53 PM,73.9,70.0,87,29.85,10.0,SSE,12.7,-,N/A,,Partly Cloudy,160,2013-09-19 00:53:00
8:53 PM,73.0,70.0,90,29.86,9.0,SSE,11.5,-,N/A,,Partly Cloudy,160,2013-09-19 01:53:00
9:53 PM,73.0,70.0,90,29.87,9.0,South,11.5,-,N/A,,Partly Cloudy,170,2013-09-19 02:53:00
10:53 PM,72.0,70.0,93,29.87,8.0,South,9.2,-,N/A,,Clear,180,2013-09-19 03:53:00
11:53 PM,71.1,70.0,96,29.87,8.0,South,9.2,-,N/A,,Clear,180,2013-09-19 04:53:00